User: anonymous
Location: Camp Creek
(33.9000°N, 111.8167°W)
Time: 08:57:26
(UTC-07:00)
Language:

DELTA 2 R/B (1) - Orbit

View from above orbital plane
View from above orbital plane
View from above satellite
View from above satellite

Ground track
Ground track

The orbit data is extracted from the following two-line orbital elements,

1 27665U 03005C   14206.08904946 -.00000018  00000-0  26535-4 0   735
2 27665 039.5758 097.1864 0010378 231.6939 270.0429 14.28203830599606
Epoch (UTC): 25 July 2014 02:08:13
Eccentricity: 0.0010378
inclination: 39.5758°
perigee height: 790 km
apogee height: 805 km
right ascension of ascending node: 97.1864°
argument of perigee: 231.6939°
revolutions per day: 14.28203830
mean anomaly at epoch: 270.0429°
orbit number at epoch: 59960

The dashed part of the orbit path shows where the satellite is in the earth's shadow,  

DLR